Miscellaneous Local Product
Issued by NWS Hastings, NE

Home | Current Version | Previous Version | Text Only | Print | Product List | Glossary Off
Versions: 1 2 3 4 5 6 7 8 9 10 11 12 13 14 15 16 17 18 19 20 21 22 23 24 25 26 27 28 29 30 31 32 33 34 35 36 37 38 39 40 41 42 43 44 45 46 47 48 49 50

000
AXUS43 KGID 170802
MISGRI

GID CWA HOURLY WEATHER ROUNDUP
NATIONAL WEATHER SERVICE HASTINGS NE
300 AM CDT WED SEP 17 2014

NOTE: "FAIR" INDICATES FEW OR NO CLOUDS BELOW 12,000 FEET WITH NO
SIGNIFICANT WEATHER AND/OR OBSTRUCTIONS TO VISIBILITY.

...SOUTH CENTRAL NEBRASKA...

CITY           SKY/WX    TMP DP  RH WIND       PRES   REMARKS
GRAND ISLAND   CLEAR     55  50  83 CALM      29.95R
HASTINGS       CLEAR     58  49  72 S7        29.93S
KEARNEY        CLEAR     50  46  87 CALM      29.94S
ORD            MOCLDY    47  46  97 CALM      29.94F FOG
YORK           CLEAR     55  50  82 CALM      29.94R
LEXINGTON      CLEAR     49  48  97 N5        29.95F FOG
HOLDREGE       CLEAR     50  49  93 CALM      29.94S
HEBRON         CLEAR     55  51  89 SE5       29.92F

...NEBRASKA PANHANDLE...

CITY           SKY/WX    TMP DP  RH WIND       PRES   REMARKS
CHADRON        MOCLDY    54  50  86 SW6       29.96F
ALLIANCE       PTCLDY    46  43  89 S6        30.00S
SCOTTSBLUFF    PTCLDY    58  47  66 NE3       30.00F
SIDNEY         CLEAR     52  46  80 W10       30.05R

...WESTERN AND NORTH CENTRAL NEBRASKA...

CITY           SKY/WX    TMP DP  RH WIND       PRES   REMARKS
VALENTINE      CLEAR     49  48  97 NW3       29.94F
ONEILL         CLEAR     53  53 100 S7        29.95S
BROKEN BOW     PTCLDY    46  44  93 CALM      29.96S FOG
IMPERIAL       PTCLDY    52  49  89 W3        29.99S
NORTH PLATTE   FOG       48  47  96 W3        29.97S VSB 1/4
MCCOOK         CLEAR     53  51  93 NW6       29.96S FOG

...EASTERN NEBRASKA...

CITY           SKY/WX    TMP DP  RH WIND       PRES   REMARKS
NORFOLK        CLEAR     51  49  92 CALM      29.96R
SO SIOUX CITY  CLOUDY    58  53  84 SE6       29.96F
TEKAMAH        CLOUDY    59  54  83 SE3       29.96F
ALBION         CLEAR     49  46  91 CALM      29.96S
OMAHA EPPLEY   CLOUDY    62  53  72 SE6       29.97F
OFFUTT AFB     CLOUDY    60  60  99 E6        29.96F
MILLARD        CLOUDY    61  55  78 SE3       29.96S
LINCOLN        CLEAR     60  53  77 SE7       29.94F
NEBRASKA CITY  CLOUDY    61  51  69 S3        29.96F
BEATRICE       PTCLDY    62  55  78 SE6       29.95S
FALLS CITY     CLOUDY    62  56  80 E3        29.96F

...NORTHERN KANSAS...

CITY           SKY/WX    TMP DP  RH WIND       PRES   REMARKS
GOODLAND       CLEAR     57  51  80 SW8       30.00S
HILL CITY      CLEAR     56  55  97 CALM      29.92F
NORTON         SUNNY     54  50  87 CALM      29.92S FOG
PHILLIPSBURG   CLEAR     55  55 100 E6        29.92S
SMITH CENTER   CLEAR     55  54  94 E10       29.92F
BELOIT         PTCLDY    61  59  94 E3        29.91F
HAYS           CLEAR     63  57  82 S9        29.91F
RUSSELL        CLEAR     65  63  93 S14       29.90F
CONCORDIA      PTCLDY    58  57  97 CALM      29.93F
SALINA         CLEAR     67  64  90 S9        29.93F
TOPEKA         CLOUDY    65  61  87 SE6       29.97F



USA.gov is the U.S. government's official web portal to all federal, state and local government web resources and services.